Showing default

3CAT-5/A (TYVAK-0161), 46292

Orbit data source: Space-Track

3CAT-5/A (TYVAK-0161), 46292 is a payload satellite owned by UPC (ES) in SSO that was launched on Thu, 03 Sep 2020 UTC via a VEGA launch vehicle from the French Guiana (FRGUI). Payload-class satellites include a variety of spacecraft equipped with specific instruments for various scientific and technological missions. These include communications satellites like Starlink; space stations such as the ISS; scientific satellites like the Hubble; Earth observation satellites from companies like Planet Labs, Umbra, and HawkEye 360; GPS; miniature CubeSats for education and research; and military/defense satellites.

Loading next visibility...
Identifier
46292, 2020-061W
Orbit
SSO
Country
Flag of ESES / SPN
Related business
Manufacturer
UPC
Mission
Non-operational Amateur Technology
Bus & Motor
CUBESAT 6U, Unknown motor
Mass
~10 kg wet, ~10 kg dry
Launch date (UTC)
2020-09-03 (5 years ago)
Launch vehicle
VEGA
Launch site
French Guiana (FRGUI)
Object type
Payload
Rocket body
Debris
Shape & HBR
Box, Unknown HBR
Radar Cross Section
0.080 m², Medium (>0.1 m² and < 1m²)

Expand to show TLE details & history
Last TLE update: 15 hours ago

TLE from 15 hours ago
0 3CAT-5/A (TYVAK-0161)
1 46292U 20061W   25258.10229807  .00010954  00000-0  31389-3 0  9999
2 46292  97.2845 317.5686 0003251  67.2278 292.9310 15.36073746278655
Epoch: 2025-09-15T02:27Z
TLE epoch observation values (Epoch: 2025-09-15T02:27:18.553Z)
Latitude
0.00005°
Longitude
-73.57048°
Altitude
459.983 km
Speed
7.637 km/s
True Right ascension
21h 10m 16s
True Declination
0° 00' 00"
Sunlit
Object was in full shadow at epoch
Visualization orbit readout
Latitude
Unknown
Longitude
Unknown
Altitude
Unknown
Speed
Unknown
Apparent Right ascension
Unknown
Apparent Declination
Unknown
Sunlit
N/A
Visualization observer readout
Local Sidereal Time
09:54:13
Azimuth
Unknown
Elevation
Unknown
Doppler factor
Unknown
Orbital elements
Apogee altitude
456.894 km
Perigee altitude
452.451 km
Semi-major axis
6,832.809 km
Eccentricity
0.00033
Inclination
97.2845°
RAAN
317.5686°
Arg. of periapsis
67.2278°
True anomaly
292.89668°
Mean anomaly
292.931°
Eccentric anomaly
292.91384°
Mean motion
3.84277 °/min
Orbital period
93.68 mins
BSTAR
0.00031389
Loading maneuver chart data...
Computing Atmospheric mass density...

Documentation

Showing up to 5 results
|